User: anonymous   Login
Location: ????
(33.1659°N, 35.6604°E)
Time: 21:08:16
(UTC+00:00)
Language:

Cosmos 1140 Rocket - Orbit

View from above orbital plane
View from above orbital plane
View from above satellite
View from above satellite

Ground track
Ground track

The orbit data is extracted from the following two-line orbital elements,

1 11574U 79089B   19326.54171679  .00000042  00000-0  21353-4 0  9996
2 11574  74.0714  19.1747 0014849  54.5491 305.7049 14.40734725105074
Epoch (UTC): 22 November 2019 13:00:04
Eccentricity: 0.0014849
inclination: 74.0714°
perigee height: 745 km
apogee height: 766 km
right ascension of ascending node: 19.1747°
argument of perigee: 54.5491°
revolutions per day: 14.40734725
mean anomaly at epoch: 305.7049°
orbit number at epoch: 10507

The dashed part of the orbit path shows where the satellite is in the earth's shadow,  

DLR